Location: Unspecified
(40.7945°N, 111.1337°W)
Time: 17:30:10
(UTC-06:00)

ISS - Visible Passes

Search period start: 20 May 2018 00:00
Search period end: 30 May 2018 00:00
Orbit: 402 x 407 km, 51.6° (Epoch: 21 May)

Date Brightness Start Highest point End Pass type
(mag) Time Alt. Az. Time Alt. Az. Time Alt. Az.
20 May -0.5 01:21:28 11° NNW 01:22:46 13° N 01:24:29 10° NNE visible
20 May -0.6 02:58:21 10° NNW 03:00:18 15° NNE 03:02:14 10° NE visible
20 May -2.7 04:34:15 10° NW 04:37:24 46° NNE 04:40:33 10° ESE visible
20 May -2.1 21:15:12 10° SSE 21:17:08 15° SE 21:19:06 10° E visible
20 May -3.3 22:50:05 10° WSW 22:53:18 58° NNW 22:56:31 10° NE visible
21 May -0.7 00:28:12 10° NW 00:30:19 16° NNW 00:32:26 10° NNE visible
21 May -0.4 02:06:15 10° NNW 02:07:50 13° N 02:09:24 10° NE visible
21 May -1.7 03:42:14 10° NW 03:45:07 28° NNE 03:48:00 10° E visible
21 May -3.3 05:18:37 10° WNW 05:21:39 37° SW 05:24:40 10° SSE visible
21 May -4.0 21:57:53 10° SW 22:01:07 73° SE 22:04:22 10° ENE visible
21 May -1.1 23:35:21 10° WNW 23:37:54 21° NNW 23:40:27 10° NNE visible
22 May -0.3 01:13:53 10° NNW 01:15:19 12° N 01:16:46 10° NNE visible
22 May -1.1 02:50:14 10° NNW 02:52:46 20° NNE 02:55:16 10° ENE visible
22 May -4.0 04:26:18 10° WNW 04:29:33 76° SW 04:32:47 10° SE visible
22 May -1.7 22:42:37 10° W 22:45:31 29° NNW 22:48:26 10° NE visible
23 May -0.4 00:21:12 10° NW 00:22:48 13° N 00:24:24 10° NNE visible
23 May -0.7 01:58:14 10° NNW 02:00:19 16° NNE 02:02:25 10° NE visible
23 May -3.2 03:34:08 10° NW 03:37:21 57° NNE 03:40:33 10° ESE visible
23 May -2.2 05:11:30 10° W 05:13:31 15° SW 05:15:31 10° S visible
23 May -2.7 21:50:03 10° WSW 21:53:13 47° NNW 21:56:23 10° NE visible
23 May -0.6 23:28:20 10° NW 23:30:18 15° NNW 23:32:16 10° NNE visible
24 May -0.5 01:06:07 10° NNW 01:07:50 13° N 01:09:31 10° NE visible
24 May -1.0 02:42:03 10° NW 02:42:42 14° NNW 02:42:42 14° NNW visible
24 May -0.9 22:35:26 10° WNW 22:37:50 19° NNW 22:40:13 10° NNE visible
25 May -0.5 00:13:49 10° NNW 00:15:17 12° N 00:16:45 10° NNE visible
25 May -0.9 01:50:01 10° NNW 01:51:11 17° NNW 01:51:11 17° NNW visible
25 May -1.4 21:42:36 10° W 21:45:23 25° NNW 21:48:11 10° NE visible
25 May -0.6 23:21:13 10° NNW 23:22:44 13° N 23:24:15 10° NNE visible
26 May -0.9 00:57:58 10° NNW 01:00:12 17° NNE 01:00:12 17° NNE visible
26 May -0.7 22:28:21 10° NW 22:30:11 14° N 22:32:00 10° NNE visible
27 May -0.8 00:05:52 10° NNW 00:07:42 14° N 00:09:23 11° NE visible
27 May -0.7 01:41:46 10° NW 01:42:00 12° NW 01:42:00 12° NW visible
27 May -0.9 21:35:24 10° WNW 21:37:39 17° NNW 21:39:54 10° NNE visible
27 May -0.7 23:13:37 10° NNW 23:15:08 13° N 23:16:40 10° NNE visible
28 May -1.1 00:49:40 10° NW 00:51:16 20° N 00:51:16 20° N visible
28 May -0.7 22:21:04 10° NNW 22:22:33 12° N 22:24:00 10° NNE visible
28 May -1.3 23:57:36 10° NNW 00:00:01 19° NNE 00:00:35 18° NNE visible
29 May -0.8 21:28:14 10° NW 21:29:57 13° N 21:31:39 10° NNE visible
29 May -0.9 23:05:29 10° NNW 23:07:28 15° NNE 23:09:27 10° NE visible
